TJS-5

Last updated on Mon Oct 14 2024 00:02:41 GMT+0000 (Coordinated Universal Time)

1 44978U 20002A 24287.52953454 -.00000344 00000+0 00000+0 0 9996 2 44978 0.0804 95.5872 0004303 103.4678 121.6702 1.00268197 17563
UTC large
Height (km)
Speed (km/s)
/
Latitude / Longitude
Inclination (degrees)
Orbital Period (minutes)
Azimuth
Elevation
Range (km)
Doppler Factor

Next 0 passes for location: London (51.5072 / 0.1276)

Sorry there are no passes over London.